DELTA 1 DEB, 7068

Orbit data source: Space-Track

DELTA 1 DEB, 7068 is space debris in SSO originally from a launch on Tue, 06 Nov 1973 UTC launched from the Air Force Western Test Range (AFWTR). Debris objects in space refer to the collection of defunct objects orbiting the Earth. Examples of debris include non-operational satellites, rocket bodies, and fragments generated from explosions, collisions, or faulty payload assembly.

Loading next visibility...
Identifier
7068, 1973-086BL
Orbit
SSO
Country
Flag of USUS
Related business
Manufacturer
Unknown
Mission
Spacecraft
Bus & Motor
Unknown
Mass
Unknown
Launch date (UTC)
1973-11-06 (53 years ago)
Launch vehicle
Unknown
Launch site
Air Force Western Test Range (AFWTR)
Object type
Payload
Rocket body
Debris
Shape & HBR
Unknown shape, 0.1 m
Radar Cross Section
Medium (>0.1 m² and <1 m²)

Expand to show TLE details & history
Last TLE update: 18 hours ago

TLE from 18 hours ago
0 DELTA 1 DEB
1  7068U 73086BL  26262.94000522  .00000020  00000-0  28831-3 0  9992
2  7068 102.3951 254.9649 0215014 341.4460  47.2351 12.81710476470873
Epoch: 2026-09-19T22:33Z
TLE epoch observation values (Epoch: 2026-09-19T22:33:36.451Z)
Latitude
29.78964°
Longitude
-89.46926°
Altitude
1,227.389 km
Speed
7.295 km/s
True Right ascension
16h 31m 05s
True Declination
29° 39' 03"
Sunlit
Object was in daylight at epoch
Visualization orbit readout
Latitude
Unknown
Longitude
Unknown
Altitude
Unknown
Speed
Unknown
Apparent Right ascension
Unknown
Apparent Declination
Unknown
Sunlit
N/A
Visualization observer readout
Local Sidereal Time
09:47:09
Azimuth
Unknown
Elevation
Unknown
Doppler factor
Unknown
Orbital elements
Apogee altitude
1,497.926 km
Perigee altitude
1,166.362 km
Semi-major axis
7,710.281 km
Eccentricity
0.0215
Inclination
102.3951°
RAAN
254.9649°
Arg. of periapsis
341.446°
True anomaly
49.07723°
Mean anomaly
47.2351°
Eccentric anomaly
48.1528°
Mean motion
3.20581 °/min
Orbital period
112.3 mins
BSTAR
0.00028831
Loading maneuver chart data...
Computing Atmospheric mass density...
Loading historical data...
Loading historical data...
Loading historical data...
Loading historical data...
Loading historical data...
Loading historical data...
Loading historical data...

Documentation

Showing up to 5 results
|